Regional Weather Roundup
Issued by NWS

Home | Current Version | Previous Version | Text Only | Print | Product List | Glossary Off
Versions: 1 2 3 4 5 6 7 8 9 10 11 12 13 14 15 16 17 18 19 20 21 22 23 24 25 26 27 28 29 30 31 32 33 34 35 36 37 38 39 40 41 42 43 44 45 46 47 48 49 50

000
ASUS43 KOAX 290302
RWRNE

WEATHER ROUNDUP FOR NEBRASKA
NATIONAL WEATHER SERVICE OMAHA NE
1000 PM CDT WED SEP 28 2016

NOTES: SATELLITE DATA IS BEING USED TO AUGMENT CLOUD COVER ABOVE
       12000 FEET.
       "FAIR" INDICATES FEW OR NO CLOUDS BELOW 12,000 FEET WITH NO
       SIGNIFICANT WEATHER AND/OR OBSTRUCTIONS TO VISIBILITY.

  * THESE STATIONS DO NOT REPORT WEATHER SUCH AS RAIN...SNOW OR FOG.

NEZ001>004-019>022-054>056-290400-
NEBRASKA PANHANDLE

CITY           SKY/WX    TMP DP  RH WIND       PRES   REMARKS
SCOTTSBLUFF    CLEAR     58  44  60 E10       30.31R
ALLIANCE       CLEAR     56  44  64 E9        30.33R
CHADRON        CLEAR     64  42  44 SE8       30.31R
KIMBALL        CLEAR     55  39  56 E7        30.36R HAZE
SIDNEY         CLEAR     57  38  48 SE9       30.35R
$$

NEZ057>060-069>072-079>082-290400-
SOUTHWEST NEBRASKA

CITY           SKY/WX    TMP DP  RH WIND       PRES   REMARKS
NORTH PLATTE   CLEAR     51  34  52 E6        30.33R
IMPERIAL       CLEAR     57  39  51 E9        30.33R
LEXINGTON      CLEAR     51  43  74 E5        30.33R
MCCOOK         CLEAR     55  38  52 E7        30.32R
OGALLALA       CLEAR     59  42  53 E5        30.33R
$$

NEZ005>010-023>029-035>040-094-290400-
NORTH CENTRAL NEBRASKA

CITY           SKY/WX    TMP DP  RH WIND       PRES   REMARKS
VALENTINE      CLEAR     51  43  74 E7        30.35R
AINSWORTH      CLEAR     48  43  83 E7        30.36R
BROKEN BOW     CLEAR     55  43  63 E8        30.34R
O`NEILL        CLEAR     51  42  73 CALM      30.36R
ORD            CLEAR     49  40  71 E3        30.34R
THEDFORD       CLEAR     53  37  55 CALM      30.35R
$$

NEZ041-046>049-061>064-073>077-083>087-290400-
SOUTH CENTRAL NEBRASKA

CITY           SKY/WX    TMP DP  RH WIND       PRES   REMARKS
GRAND ISLAND   CLEAR     48  42  80 NE6       30.34R
AURORA         CLEAR     50  44  80 NE6       30.34R
HASTINGS       CLEAR     52  41  66 NE3       30.34R
HEBRON         CLEAR     52  44  73 CALM      30.32R
HOLDREGE         N/A     52  41  67 E6        30.32R HAZE
KEARNEY *      CLEAR     50  39  66 NE7       30.33R
YORK           CLEAR     50  45  81 E9        30.34R
$$

NEZ011>018-030>034-042>045-290400-
NORTHEAST NEBRASKA

CITY           SKY/WX    TMP DP  RH WIND       PRES   REMARKS
NORFOLK        CLEAR     51  44  77 CALM      30.35R
ALBION         CLEAR     51  43  72 NE3       30.35R
BLAIR          CLEAR     54  47  79 N7        30.31R
FREMONT        CLEAR     49  44  83 CALM      30.33R
TEKAMAH        CLEAR     49  45  86 N6        30.32R
WAYNE          CLEAR     46  44  91 CALM      30.36R
$$

NEZ050>053-065>068-078-088>093-290400-
SOUTHEAST NEBRASKA

CITY           SKY/WX    TMP DP  RH WIND       PRES   REMARKS
LINCOLN        CLEAR     55  46  71 N7        30.34R
OMAHA EPPLEY   MOCLDY    54  47  77 N7        30.31R
BEATRICE       CLEAR     52  46  80 NE5       30.31R
FALLS CITY     CLOUDY    56  50  80 N5        30.29R
NEBRASKA CITY  PTCLDY    53  45  74 NE3       30.31R
PLATTSMOUTH    PTCLDY    54  45  70 N5        30.31R
$$

NEZ044-045-051>053-067-290400-
OMAHA AREA

CITY           SKY/WX    TMP DP  RH WIND       PRES   REMARKS
OMAHA EPPLEY   MOCLDY    54  47  77 N7        30.31R
BLAIR          CLEAR     54  47  79 N7        30.31R
FREMONT        CLEAR     49  44  83 CALM      30.33R
MILLARD        CLEAR     57  47  69 CALM      30.31R
OFFUTT AFB     MOCLDY    56  48  74 N6        30.30R
PLATTSMOUTH    PTCLDY    54  45  70 N5        30.31R
WAHOO          FAIR      51  46  81 N6        30.33R
$$




USA.gov is the U.S. government's official web portal to all federal, state and local government web resources and services.